Powrót do katalogu

FENGYUN 1C DEB

AktywnySSO
NORAD 30224·DEBRIS·🇨🇳 China

Wystrzelony May 10, 1999 z Taiyuan Satellite Launch Center

Loading…

Następne Przeloty (najbliższe 24 godziny)

TLE

ŚwieżeSource: Space-Track

Epoka: Sep 14, 2026, 08:48 UTC

1 30224U 99025WH  26257.36695868  .00000183  00000-0  17744-3 0  9997
2 30224  99.4513 305.9018 0110560 325.2617  94.7933 13.90069831995704

Śledź FENGYUN 1C DEB w czasie rzeczywistym z AllMySat

Download on the App Store